Weather past 2 weeks in Cayenne, French Guiana

Now
79 °F

Passing clouds.


Feels Like: 82 °F
Forecast: 79 / 84 °F
Wind: 8 mph from Northeast

Location: Cayenne / Rochambeau


UV Index: 3 (Moderate)

Visibility: N/A


Pressure: 29.89 "Hg

Humidity: 84%

Dew point: 73 °F

Location of CayenneLocation

Historic Weather in Cayenne

°F

Cayenne temperature yesterday

Maximum temperature yesterday: 86 °F (at 2:30 PM)
Minimum temperature yesterday: 75 °F (at 5:00 AM)
Average temperature yesterday: 80 °F

Past Weeks' High & Low Weather Summary

 TemperatureHumidityPressure
High88 °F (Apr 10, 12:30 PM)94% (Apr 5, 5:00 AM)30.01 "Hg (Apr 5, 5:00 AM)
Low73 °F (Apr 11, 1:30 AM)49% (Apr 10, 2:00 PM)29.80 "Hg (Apr 13, 3:30 PM)
Average80 °F79%29.90 "Hg
* Reported Apr 5 5:00 AM — Apr 20 5:30 AM, Cayenne, Weather by CustomWeather, © 2014

Note: Actual official high and low records may vary slightly from our data, if they occured in-between our weather recording intervals... More about our weather records

Advertising

Historic Weather Conditions — Data for Previous 24 hours

 ConditionsComfort  
Time TempWeatherWind HumidityBarometerVisibility
5:30 AM
Apr 20
79 °FPassing clouds.6 mph84%29.89 "HgN/A
5:00 AM79 °FPartly cloudy.9 mph84%29.89 "HgN/A
4:30 AM79 °FPartly cloudy.9 mph84%29.86 "HgN/A
4:00 AM79 °FPartly cloudy.6 mph89%29.86 "HgN/A
3:30 AM79 °FMostly cloudy.7 mph84%29.86 "HgN/A
3:00 AM79 °FMostly cloudy.8 mph84%29.86 "HgN/A
2:30 AM79 °FPartly cloudy.8 mph89%29.89 "HgN/A
2:00 AM79 °FPassing clouds.9 mph84%29.89 "HgN/A
1:30 AM79 °FPartly cloudy.7 mph84%29.89 "HgN/A
1:00 AM79 °FPassing clouds.6 mph89%29.92 "HgN/A
12:30 AM79 °FPassing clouds.6 mph89%29.92 "HgN/A
12:00 AM79 °FPassing clouds.5 mph89%29.92 "HgN/A
11:30 PM
Apr 19
79 °FPartly cloudy.5 mph89%29.92 "HgN/A
11:00 PM79 °FPassing clouds.7 mph89%29.92 "HgN/A
10:30 PM79 °FMostly cloudy.8 mph89%29.92 "HgN/A
10:00 PM79 °FPartly cloudy.8 mph84%29.92 "HgN/A
9:30 PM79 °FPartly cloudy.7 mph89%29.92 "HgN/A
9:00 PM79 °FMostly cloudy.6 mph84%29.89 "HgN/A
8:30 PM79 °FPartly cloudy.6 mph89%29.89 "HgN/A
8:00 PM81 °FPassing clouds.7 mph79%29.89 "HgN/A
7:30 PM81 °FPassing clouds.7 mph79%29.86 "HgN/A
7:00 PM81 °FPartly cloudy.8 mph79%29.86 "HgN/A
6:30 PM81 °FBroken clouds.12 mph79%29.86 "HgN/A
6:00 PM82 °FScattered clouds.15 mph74%29.86 "HgN/A
5:30 PM82 °FPartly sunny.15 mph74%29.86 "HgN/A
5:00 PM82 °FBroken clouds.15 mph70%29.86 "HgN/A
4:30 PM82 °FBroken clouds.15 mph74%29.86 "HgN/A
4:00 PM82 °FBroken clouds.13 mph74%29.86 "HgN/A
3:30 PM84 °FMostly cloudy.16 mph70%29.86 "HgN/A
3:00 PM84 °FPartly sunny.17 mph70%29.86 "HgN/A
2:30 PM86 °FPartly sunny.17 mph66%29.86 "HgN/A
2:00 PM84 °FMostly cloudy.15 mph70%29.89 "HgN/A
1:30 PM84 °FPartly sunny.17 mph70%29.89 "HgN/A
1:00 PM84 °FPartly sunny.17 mph70%29.92 "HgN/A
12:30 PM84 °FMostly cloudy.18 mph70%29.92 "HgN/A
12:00 PM84 °FBroken clouds.15 mph74%29.95 "HgN/A
11:30 AM82 °FPartly sunny.16 mph74%29.95 "HgN/A
11:00 AM81 °FLight rain. Partly sunny.6 mph89%29.95 "HgN/A
10:30 AM81 °FLight rain. Partly sunny.18 mph84%29.95 "HgN/A
10:00 AM84 °FOvercast.16 mph74%29.95 "HgN/A
9:30 AM82 °FBroken clouds.15 mph79%29.95 "HgN/A
9:00 AM81 °FPartly sunny.13 mph89%29.95 "HgN/A
8:30 AM82 °FPartly sunny.7 mph79%29.95 "HgN/A
8:00 AM79 °FPartly sunny.3 mph89%29.92 "HgN/A
7:30 AM79 °FBroken clouds.1 mph89%29.92 "HgN/A
7:00 AM77 °FMostly cloudy.2 mph89%29.89 "HgN/A
6:30 AM77 °FBroken clouds.5 mph89%29.89 "HgN/A
6:00 AM77 °FMostly cloudy.2 mph89%29.89 "HgN/A
Weather by CustomWeather, © 2014

See weather overview